{"data":{"norad_id":57766,"epoch":"2026-09-22T17:52:45.706944Z","epoch_age_seconds":112184,"freshness":"FRESH","line1":"1 57766U 23133K   26265.74497346  .00000060  00000+0  43082-4 0  9994","line2":"2 57766  80.9989 273.8169 0007695 100.1475 260.0550 13.85651560154555","mean_motion":13.8565156,"eccentricity":0.0007695,"inclination_deg":80.9989,"raan_deg":273.8169,"arg_perigee_deg":100.1475,"mean_anomaly_deg":260.055,"bstar":4.3082e-5,"rev_number":15455,"period_min":103.92222991471,"perigee_km":938.27521903289,"apogee_km":949.54384864847,"semimajor_km":7322.0465338407,"source":"CELESTRAK","updated_at":"2026-09-23T09:00:18.339491Z"}}